Regional Weather Roundup
Issued by NWS

Home | Current Version | Previous Version | Text Only | Print | Product List | Glossary Off
Versions: 1 2 3 4 5 6 7 8 9 10 11 12 13 14 15 16 17 18 19 20 21 22 23 24 25 26 27 28 29 30 31 32 33 34 35 36 37 38 39 40 41 42 43 44 45 46 47 48 49 50

000
ASUS45 KTFX 121210
RWRMT
MONTANA REGIONAL WEATHER ROUNDUP
NATIONAL WEATHER SERVICE GREAT FALLS MT
500 AM MST FRI FEB 12 2016

NOTE: "FAIR" INDICATES FEW OR NO CLOUDS BELOW 12000 FEET WITH NO
SIGNIFICANT WEATHER AND/OR OBSTRUCTIONS TO VISIBILITY.

MTZ001>007-043-121300-
WEST OF THE DIVIDE

CITY           SKY/WX    TMP DP  RH WIND       PRES   REMARKS
KALISPELL      LGT RAIN  33  32  96 NE3       30.23S FOG
MISSOULA       LGT RAIN  34  33  96 NW3       30.25S VSB 1/2
BUTTE          CLOUDY    33  32  96 CALM      30.24F
MULLAN PASS    FOG       34  34 100 S7        30.18F VSB 1/4 WCI  28
ANACONDA         N/A     36  34  93 CALM      30.24S
DEER LODGE       N/A     36  36 100 CALM      30.25F
HAMILTON         N/A     37  37 100 CALM      30.23S
PLAINS           N/A     39  35  85 CALM      30.22S
THOMPSON FALLS   N/A     39  37  92 CALM      30.26
$$

MTZ008-052>055-121300-
SOUTHWEST MONTANA

CITY           SKY/WX    TMP DP  RH WIND       PRES   REMARKS
BOZEMAN        CLOUDY    34  31  88 NE5       30.25R
DILLON         CLOUDY    37  31  78 S10       30.25S WCI  30
ENNIS          CLOUDY    37  36  93 S13G18    30.31S WCI  29
TWIN BRIDGES     N/A     36  31  82 E7        30.21S WCI  30
$$

MTZ009-010-012-014-046-048-049-054-121300-
EAST SLOPES AND CENTRAL MONTANA

CITY           SKY/WX    TMP DP  RH WIND       PRES   REMARKS
CUT BANK       CLOUDY    31  29  92 E7        30.22F WCI  24
GREAT FALLS    CLOUDY    33  28  81 E9        30.22F WCI  25
MALMSTROM AFB  CLOUDY    32  30  92 NE2       30.24F
HELENA         LGT RAIN  37  33  85 CALM      30.24S
CHOTEAU          N/A     32  30  93 E6        30.23F WCI  26
CONRAD           N/A     31  31 100 MISG      30.23S
$$

MTZ011-013-016-021-045-047-050-051-121300-
NORTH CENTRAL MONTANA

CITY           SKY/WX    TMP DP  RH WIND       PRES   REMARKS
HAVRE          CLOUDY    29  28  96 NE6       30.30S FOG     WCI  23
LEWISTOWN      CLOUDY    33  28  81 E6        30.26R WCI  28
N BAR RANCH    FOG       28  27  93 CALM      30.28R VSB<1/4
CHINOOK          N/A     30  30 100 E9        30.33R WCI  22
$$

MTZ017>020-022>027-061-062-121300-
NORTHEAST MONTANA

CITY           SKY/WX    TMP DP  RH WIND       PRES   REMARKS
GLASGOW        CLOUDY    20  16  84 E16       30.40R WCI   6
JORDAN           N/A     30  28  92 E9        30.34R WCI  22
SIDNEY         CLOUDY    16  10  79 NE15      30.46R WCI   1
WOLF POINT     CLOUDY    18  10  71 E16       30.47R WCI   3
PLENTYWOOD       N/A      1  -6  71 NE8       30.47S WCI -12
POPLAR           N/A     12   9  85 NE15      30.49R WCI  -4
SCOBEY           N/A     10  -1  61 N9        30.39R WCI  -3
$$

MTZ028>42-056>058-121300-
SOUTHCENTRAL AND SOUTHEAST MONTANA

CITY           SKY/WX    TMP DP  RH WIND       PRES   REMARKS
BAKER          CLOUDY    24  20  84 NE7       30.36R WCI  16
BILLINGS       CLOUDY    32  30  92 N3        30.28R
LIVINGSTON     CLOUDY    39  26  59 CALM      30.24S
MILES CITY     CLOUDY    31  26  82 CALM      30.35R
FORSYTH          N/A     34  30  86 CALM      30.34R
LAUREL           N/A     33  24  70 CALM      30.23S
ROUNDUP          N/A     29  24  81 CALM      30.18R VSB 0
$$

REGIONAL REPORTS...DAKOTAS

CITY           SKY/WX    TMP DP  RH WIND       PRES   REMARKS
WILLISTON      CLOUDY     8   2  76 NE9       30.50R WCI  -5
MINOT          CLOUDY     0  -9  65 NW9       30.51R WCI -15
DICKINSON      CLOUDY    16  11  80 NE8       30.37R WCI   5
BEACH          CLOUDY    18  16  93 NE8       30.42R WCI   7
CROSBY           N/A     -4  -8  84 NW8       30.55R WCI -19
TIOGA            N/A      0  -2  92 NE7       30.52R WCI -13
WATFORD CITY   CLOUDY    10   7  85 N7        30.47R WCI   0
BISMARCK       CLOUDY    13   6  74 N14       30.48R WCI  -2
GRAND FORKS    CLEAR      0  -9  65 N15       30.51R WCI -19
FARGO          CLEAR      2  -7  66 N21       30.47R WCI -20
BUFFALO SD       N/A     26  21  81 N9        30.27R WCI  17
RAPID CITY     CLOUDY    30  27  88 NE12      30.32R WCI  20
$$

REGIONAL REPORTS...WYOMING/IDAHO/WASHINGTON

CITY           SKY/WX    TMP DP  RH WIND       PRES   REMARKS
GILLETTE       CLOUDY    27  25  92 NE6       30.29R WCI  20
SHERIDAN       CLOUDY    32  27  80 CALM      30.28S
BUFFALO WY     CLOUDY    38  25  59 NW5       30.27S
CODY           CLOUDY    32  18  55 CALM      30.24F
YELLOWSTONE LA   N/A     30  27  88 CALM      30.36S
IDAHO FALLS    CLOUDY    20  17  88 N7        30.35S WCI  11
SALMON         CLOUDY    23  19  86 CALM      30.33F
BOISE          CLEAR     31  27  85 CALM      30.33S
SPOKANE        CLOUDY    39  38  96 NE5       30.19S
$$

REGIONAL REPORTS...ALBERTA

CITY           SKY/WX    TMP DP  RH WIND       PRES   REMARKS
EDMONTON       CLOUDY    16  10  79 SE10      30.31F WCI   3
CALGARY        FOG       27  27 100 SE10      30.19F VSB 1/4 WCI  17
LETHBRIDGE     FOG       28  28 100 VRB9      30.23F VSB 5/8 WCI  20
MEDICINE HAT   CLOUDY    23  21  93 E14       30.32F WCI  11
WATERTON GATE    N/A     30  28  93 NE2         N/A
CARDSTON         N/A     30  28  93 SE1         N/A
MILK RIVER       N/A     27  25  93 S2          N/A
ONEFOUR          N/A     30  30 100 E9          N/A  WCI  22
$$

REGIONAL REPORTS...SASKATCHEWAN

CITY           SKY/WX    TMP DP  RH WIND       PRES   REMARKS
SWIFT CURRENT  CLOUDY     7   5  92 SE13G18   30.39S WCI  -9
REGINA         CLEAR     -2  -4  92 NW3       30.54R
SASKATOON      PTCLDY    -4  -8  84 E7        30.60R WCI -18
CYPRESS HILLS    N/A     25  23  93 CALM        N/A
VAL MARIE        N/A     16  14  93 NE9         N/A  WCI   4
ROCKGLEN         N/A      7   3  85 E3          N/A
ASSINIBOIA       N/A     14   9  79 SE9         N/A  WCI   2
$$



USA.gov is the U.S. government's official web portal to all federal, state and local government web resources and services.